Location: Dakoming
(43.5975°N, 104.0727°W)
Time: 02:49:33
(UTC+00:00)

Tiangong - Visible Passes

Search period start: 27 January 2022 00:00
Search period end: 06 February 2022 00:00
Orbit: 382 x 387 km, 41.5° (Epoch: 26 January)

Date Brightness Start Highest point End Pass type
(mag) Time Alt. Az. Time Alt. Az. Time Alt. Az.
27 Jan 3.3 01:28:41 10° S 01:30:28 14° SSE 01:30:28 14° SSE visible
28 Jan 3.1 02:04:19 10° SW 02:05:57 23° SSW 02:05:57 23° SSW visible
29 Jan 2.8 01:05:01 10° SSW 01:07:33 22° SSE 01:09:08 15° ESE visible
29 Jan 4.4 02:40:56 10° WSW 02:41:21 13° WSW 02:41:21 13° WSW visible
30 Jan 1.7 01:41:16 10° WSW 01:44:18 42° SSE 01:44:28 42° SSE visible
31 Jan 2.3 00:41:42 10° SW 00:44:34 31° SSE 00:47:26 10° E visible
31 Jan 3.1 02:18:02 10° WSW 02:19:45 28° WSW 02:19:45 28° WSW visible
01 Feb 1.5 01:18:14 10° WSW 01:21:20 53° S 01:22:48 27° ESE visible
01 Feb 4.7 02:54:55 10° W 02:55:00 11° W 02:55:00 11° W visible
02 Feb 1.5 01:55:03 10° W 01:58:01 56° SSW 01:58:01 56° SSW visible
03 Feb 1.4 00:55:10 10° WSW 00:58:18 59° S 01:01:03 13° E visible
03 Feb 3.7 02:31:57 10° W 02:33:15 21° WSW 02:33:15 21° WSW visible
04 Feb 1.7 01:31:59 10° W 01:35:05 49° S 01:36:18 30° SE visible
05 Feb 2.8 02:08:56 10° W 02:11:35 28° SSW 02:11:35 28° SSW visible
